Overview Statistics Trail Chart Weather Telemetry Raw packets
 

This is the latest recevied weather packets stored in our database for station/object N3LF. If no packets are shown the sender has not sent any weather packets the latest 10 day(s).

<< 69 70 71 72 73 74 75 >>
Time Temp. Humidity Pressure Rain* Wind** Luminosity Snow
1788133647 31.67° C 67% 1019.9 hPa 0 mm - 25 W/m² -
1788133344 32.22° C 66% 1020 hPa 0 mm - 29 W/m² -
1788133039 32.22° C 64% 1020.1 hPa 0 mm - 33 W/m² -
1788132734 32.78° C 63% 1020.1 hPa 0 mm - 41 W/m² -
1788132430 32.78° C 61% 1019.9 hPa 0 mm - 47 W/m² -
1788132125 33.33° C 61% 1020 hPa 0 mm - 52 W/m² -
1788131822 32.78° C 60% 1019.8 hPa 0 mm - 59 W/m² -
1788131521 32.78° C 60% 1019.8 hPa 0 mm - 69 W/m² -
1788131216 33.33° C 62% 1019.9 hPa 0 mm - 77 W/m² -
1788130911 33.33° C 60% 1019.9 hPa 0 mm - 86 W/m² -
1788130606 33.33° C 61% 1019.8 hPa 0 mm - 95 W/m² -
1788130306 32.78° C 61% 1019.7 hPa 0 mm - 108 W/m² -
1788130005 33.33° C 61% 1019.7 hPa 0 mm - 76 W/m² -
1788129701 33.89° C 60% 1019.5 hPa 0 mm - 88 W/m² -
1788129398 33.89° C 57% 1019.6 hPa 0 mm - 137 W/m² -
1788129097 34.44° C 59% 1019.7 hPa 0 mm - 149 W/m² -
1788128792 34.44° C 58% 1019.7 hPa 0 mm - 164 W/m² -
1788128488 33.89° C 57% 1019.5 hPa 0 mm - 179 W/m² -
1788128188 33.89° C 59% 1019.7 hPa 0 mm - 193 W/m² -
1788127880 34.44° C 57% 1019.6 hPa 0 mm - 204 W/m² -
1788127576 34.44° C 58% 1019.6 hPa 0 mm - 220 W/m² -
1788127274 35° C 58% 1019.6 hPa 0 mm - 236 W/m² -
1788126973 33.89° C 58% 1019.8 hPa 0 mm - 248 W/m² -
1788126668 35° C 56% 1019.8 hPa 0 mm - 265 W/m² -
1788126363 35° C 55% 1019.8 hPa 0 mm - 283 W/m² -

* Rain latest hour (hover to see other rain measurements)
** Current wind speed in m/s (hover to see current wind gust speed)